1504677600.29,46269,13.69,73684.8,2.87,2.55,2.55,0,*7F
1504677601.55,46270,13.69,73688.0,2.85,2.47,2.47,0,*75
1504677602.75,46271,13.69,73690.3,2.85,2.27,2.35,0,*77
1504677604.01,46272,13.69,73698.8,2.85,2.47,2.47,0,*77
1504677605.26,46273,13.69,73696.8,2.85,2.73,2.69,0,*7D
1504677606.51,46274,13.69,73696.3,2.85,2.73,2.73,0,*71
1504677607.73,46275,13.69,73688.5,2.87,2.89,2.85,0,*7E
1504677608.99,46276,13.69,73688.8,2.85,2.81,2.89,0,*7B
1504677610.23,46277,13.69,73680.8,2.87,2.81,2.81,0,*70
1504677611.45,46278,13.69,73680.8,2.87,2.89,2.85,0,*73
1504677612.63,46279,13.69,73682.0,2.87,2.91,2.91,0,*7E
1504677613.89,46280,13.69,73682.0,2.89,2.85,2.77,0,*7B
1504677615.14,46281,13.69,73682.8,2.89,2.77,2.77,0,*77
1504677616.37,46282,13.69,73680.0,2.89,2.73,2.65,0,*73
1504677617.63,46283,13.69,73688.5,2.89,2.77,2.73,0,*71
1504677618.88,46284,13.69,73694.3,2.89,2.89,2.89,0,*72
1504677620.14,46285,13.69,73688.8,2.89,2.85,2.89,0,*7F
1504677621.34,46286,13.69,73688.0,2.87,2.73,2.61,0,*7D
1504677622.57,46287,13.69,73682.3,2.87,2.21,2.17,0,*7A
1504677623.8,46288,13.69,73682.8,2.87,1.93,1.93,0,*70
1504677625.03,46289,13.69,73684.3,2.87,2.13,2.13,0,*71
1504677626.28,46290,13.69,73684.5,2.85,2.09,2.09,0,*7B
1504677627.51,46291,13.69,73688.3,2.87,2.21,2.21,0,*78
1504677628.74,46292,13.69,73682.3,2.87,2.51,2.43,0,*78
1504677630.0,46293,13.69,73678.5,2.85,2.59,2.59,0,*78
1504677631.23,46294,13.69,73674.0,2.87,2.43,2.43,0,*7D
1504677632.48,46295,13.69,73672.3,2.85,2.73,2.73,0,*7E
1504677633.74,46296,13.69,73674.0,2.85,2.73,2.81,0,*70
1504677634.97,46297,13.69,73686.8,2.87,2.85,2.89,0,*72
1504677636.19,46298,13.69,73688.5,2.87,2.85,2.85,0,*71
1504677637.41,46299,13.69,73690.3,2.87,2.77,2.85,0,*7D
1504677638.64,46300,13.69,73686.3,2.87,2.85,2.89,0,*7D
1504677639.83,46301,13.69,73676.8,2.87,2.65,2.65,0,*70
1504677641.05,46302,13.69,73674.5,2.87,2.73,2.73,0,*73
1504677642.28,46303,13.69,73676.5,2.87,2.73,2.77,0,*76
1504677643.51,46304,13.69,73676.3,2.87,2.77,2.77,0,*75
1504677644.73,46305,13.69,73680.5,2.87,2.73,2.85,0,*7D
1504677645.95,46306,13.69,73684.5,2.87,2.73,2.73,0,*77
1504677647.16,46307,13.69,73686.5,2.89,2.65,2.65,0,*78
1504677648.39,46308,13.69,73688.5,2.91,2.59,2.55,0,*72
1504677649.62,46309,13.69,73688.0,2.89,2.61,2.55,0,*71
1504677650.88,46310,13.69,73684.3,2.89,2.73,2.77,0,*7A
1504677652.13,46311,13.69,73684.8,2.89,2.77,2.85,0,*72
1504677653.3,46312,13.69,73684.3,2.91,2.35,2.35,0,*75
1504677654.57,46313,13.69,73688.5,2.89,2.51,2.51,0,*7D
1504677655.83,46314,13.69,73694.8,2.89,2.51,2.51,0,*7A
1504677657.06,46315,13.69,73690.5,2.91,2.05,2.05,0,*72
1504677658.31,46316,13.69,73684.3,2.85,2.01,1.97,0,*78
1504677659.58,46317,13.69,73686.8,2.85,2.17,2.17,0,*75
1504677660.8,46318,13.69,73680.5,2.87,2.55,2.55,0,*78
1504677661.98,46319,13.69,73684.3,2.87,2.61,2.65,0,*7D
1504677663.19,46320,13.69,73686.3,2.87,2.61,2.73,0,*70
1504677664.42,46321,13.69,73696.0,2.87,2.51,2.39,0,*7C
1504677665.63,46322,13.69,73706.8,2.87,2.51,2.61,0,*72
1504677666.82,46323,13.69,73698.3,2.87,2.65,2.61,0,*74
1504677668.03,46324,13.69,73694.3,2.87,2.55,2.65,0,*74
1504677669.25,46325,13.69,73694.3,2.87,2.73,2.77,0,*72
1504677670.48,46326,13.69,73690.8,2.87,2.77,2.73,0,*71
1504677671.71,46327,13.69,73690.0,2.87,2.77,2.77,0,*74
1504677672.93,46328,13.69,73692.5,2.87,2.77,2.85,0,*76
1504677674.15,46329,13.69,73698.3,2.87,2.85,2.85,0,*7A
1504677675.42,46330,13.69,73698.0,2.89,2.17,2.17,0,*7C
1504677676.63,46331,13.69,73696.5,2.89,1.79,1.83,0,*78
1504677677.81,46332,13.69,73694.8,2.87,1.79,1.79,0,*70
1504677679.02,46333,13.69,73694.3,2.85,1.79,1.75,0,*7F
1504677680.28,46334,13.69,73694.3,2.85,2.13,2.13,0,*74
1504677681.53,46335,13.69,73692.0,2.85,2.25,2.25,0,*75
1504677682.79,46336,13.69,73696.5,2.85,2.47,2.51,0,*71
1504677684.02,46337,13.69,73692.3,2.87,2.73,2.77,0,*71
1504677685.27,46338,13.69,73688.3,2.85,2.73,2.69,0,*73
1504677686.52,46339,13.69,73688.0,2.85,2.69,2.73,0,*72
1504677687.78,46340,13.69,73686.8,2.85,2.81,2.85,0,*73
1504677689.0,46341,13.69,73700.5,2.87,2.85,2.85,0,*74
1504677690.21,46342,13.69,73696.8,2.87,2.55,2.61,0,*70
1504677691.47,46343,13.69,73700.0,2.85,2.39,2.39,0,*74
1504677692.69,46344,13.69,73702.5,2.87,2.55,2.55,0,*71
1504677693.94,46345,13.69,73702.0,2.85,2.73,2.77,0,*76
1504677695.17,46346,13.69,73688.0,2.87,2.85,2.89,0,*7F
1504677696.4,46347,13.69,73676.3,2.87,2.73,2.73,0,*72
1504677697.63,46348,13.69,73666.3,2.87,2.13,2.17,0,*79
1504677698.86,46349,13.69,73678.0,2.87,2.13,2.17,0,*78
1504677700.09,46350,13.69,73700.5,2.87,2.13,2.13,0,*74
1504677701.33,46351,13.69,73708.0,2.87,2.43,2.43,0,*75
1504677702.54,46352,13.69,73706.0,2.85,2.61,2.61,0,*74
1504677703.72,46353,13.69,73706.0,2.87,2.61,2.61,0,*77
1504677704.95,46354,13.69,73706.5,2.87,2.77,2.77,0,*70
1504677706.21,46355,13.69,73706.5,2.85,2.85,2.89,0,*7F
1504677707.43,46356,13.69,73702.5,2.87,2.85,2.85,0,*72
1504677708.65,46357,13.69,73704.0,2.87,2.73,2.73,0,*73
1504677709.88,46358,13.69,73704.3,2.87,2.77,2.77,0,*7C
1504677711.14,46359,13.69,73704.0,2.89,2.77,2.77,0,*73
1504677712.35,46360,13.69,73706.8,2.89,2.61,2.61,0,*79
1504677713.58,46361,13.69,73700.5,2.87,2.77,2.77,0,*76
1504677714.81,46362,13.69,73702.5,2.87,2.89,2.89,0,*75
1504677716.06,46363,13.69,73698.8,2.89,2.85,2.85,0,*7A
1504677717.31,46364,13.69,73698.5,2.89,2.77,2.77,0,*7D
1504677718.54,46365,13.69,73708.5,2.89,2.77,2.91,0,*74
1504677719.79,46366,13.69,73706.0,2.89,2.85,2.77,0,*72
1504677721.05,46367,13.69,73704.3,2.89,2.39,2.43,0,*73
1504677722.31,46368,13.69,73706.5,2.89,2.77,2.77,0,*71
1504677723.54,46369,13.69,73704.8,2.91,2.77,2.77,0,*79
1504677724.8,46370,13.69,73702.8,2.89,2.43,2.51,0,*7B
1504677726.0,46371,13.69,73694.3,2.89,2.27,2.27,0,*79
1504677727.21,46372,13.69,73694.5,2.91,2.35,2.43,0,*72
1504677728.42,46373,13.69,73692.8,2.89,2.65,2.61,0,*7F
1504677729.66,46374,13.69,73694.0,2.89,2.31,2.43,0,*79
1504677730.86,46375,13.69,73696.3,2.89,2.31,2.27,0,*7A
1504677732.12,46376,13.69,73698.0,2.89,2.13,2.13,0,*7E
1504677733.35,46377,13.69,73698.8,2.87,2.39,2.43,0,*7C
1504677734.58,46378,13.69,73696.5,2.87,2.77,2.73,0,*7A
1504677735.84,46379,13.69,73702.0,2.85,2.81,2.81,0,*7D
1504677737.07,46380,13.69,73694.5,2.87,2.73,2.77,0,*7D
1504677738.28,46381,13.69,73698.0,2.89,2.61,2.61,0,*76
1504677739.49,46382,13.69,73692.0,2.89,2.65,2.65,0,*75
1504677740.72,46383,13.69,73692.0,2.91,2.43,2.47,0,*79
1504677741.98,46384,13.69,73696.5,2.89,2.51,2.55,0,*77
1504677743.23,46385,13.69,73698.0,2.89,2.85,2.85,0,*72
1504677744.46,46386,13.69,73698.8,2.91,2.89,2.89,0,*78
1504677745.69,46387,13.69,73700.5,2.91,2.77,2.81,0,*70
1504677746.93,46388,13.69,73700.3,2.91,2.81,2.89,0,*7E
1504677748.18,46389,13.69,73698.5,2.89,2.85,2.85,0,*7E
1504677749.41,46390,13.69,73698.5,2.91,2.89,2.89,0,*7F
1504677750.64,46391,13.69,73694.8,2.91,2.89,2.89,0,*7E
1504677751.84,46392,13.69,73688.5,2.91,2.95,2.89,0,*70
1504677753.07,46393,13.69,73692.8,2.91,2.47,2.55,0,*7F
1504677754.33,46394,13.69,73698.8,2.89,2.43,2.43,0,*72
1504677755.56,46395,13.69,73702.8,2.91,2.69,2.77,0,*75
1504677756.75,46396,13.69,73698.3,2.91,2.65,2.65,0,*79
1504677757.97,46397,13.69,73710.5,2.91,2.55,2.55,0,*78
1504677759.2,46398,13.69,73724.8,2.91,2.59,2.69,0,*74
1504677760.39,46399,13.69,73722.5,2.91,2.65,2.65,0,*76
1504677761.59,46400,13.69,73718.8,2.91,2.43,2.35,0,*70
1504677762.83,46401,13.69,73714.0,2.91,2.17,2.09,0,*7F
1504677764.08,46402,13.69,73700.0,2.89,1.43,1.37,0,*79
1504677765.34,46403,13.69,73698.0,2.89,1.43,1.37,0,*78
1504677766.57,46404,13.69,73692.8,2.87,1.43,1.37,0,*71
1504677767.81,46405,13.69,73694.3,2.85,1.89,1.89,0,*71
1504677769.04,46406,13.69,73692.8,2.85,2.27,2.39,0,*7D
1504677770.27,46407,13.69,73694.0,2.87,2.47,2.55,0,*72
1504677771.48,46408,13.69,73704.3,2.87,2.39,2.27,0,*71
1504677772.65,46409,13.69,73708.0,2.87,2.31,2.27,0,*78
1504677773.88,46410,13.69,73700.3,2.87,2.55,2.55,0,*77
1504677775.13,46411,13.69,73702.3,2.85,2.69,2.59,0,*77
1504677776.36,46412,13.69,73702.5,2.87,2.13,2.13,0,*75
1504677777.59,46413,13.69,73702.5,2.87,1.93,1.93,0,*74
1504677778.8,46414,13.69,73704.8,2.85,1.75,1.79,0,*7D
1504677780.02,46415,13.69,73696.3,2.83,1.89,1.85,0,*7A
1504677781.26,46416,13.69,73690.8,2.83,1.55,1.51,0,*71
1504677782.49,46417,13.69,73698.5,2.83,1.85,2.01,0,*7B
1504677783.72,46418,13.69,73696.3,2.83,1.55,1.51,0,*7F
1504677784.99,46419,13.69,73702.3,2.81,1.21,1.21,0,*78
1504677786.22,46420,13.69,73702.8,2.81,1.09,0.97,0,*44
1504677787.45,46421,13.69,73696.8,2.79,1.25,1.25,0,*74
1504677788.7,46422,13.69,73692.0,2.75,1.33,1.33,0,*7B
1504677789.92,46423,13.69,73692.3,2.79,1.59,1.51,0,*7E
1504677791.15,46424,13.69,73696.5,2.75,1.47,1.55,0,*7E
1504677792.42,46425,13.69,73700.0,2.73,1.33,1.33,0,*7A
1504677793.64,46426,13.69,73688.8,2.75,1.47,1.47,0,*7F
1504677794.91,46427,13.69,73688.3,2.73,1.33,1.33,0,*78
1504677796.15,46428,13.69,73686.3,2.71,1.21,1.21,0,*75
1504677797.39,46429,13.69,73684.3,2.71,1.29,1.29,0,*74
1504677798.63,46430,13.69,73684.3,2.71,1.21,1.21,0,*7C
1504677799.87,46431,13.69,73682.5,2.71,1.33,1.51,0,*79
1504677801.07,46432,13.69,73682.3,2.67,1.75,1.75,0,*79
1504677802.33,46433,13.69,73678.8,2.69,2.09,2.13,0,*7D
1504677803.58,46434,13.69,73684.0,2.69,1.51,1.59,0,*79
1504677804.83,46435,13.69,73684.3,2.69,1.51,1.51,0,*70
1504677806.08,46436,13.69,73682.8,2.67,1.93,1.97,0,*79
1504677807.33,46437,13.69,73688.8,2.69,2.01,2.01,0,*72
1504677808.58,46438,13.69,73690.3,2.69,2.21,2.25,0,*79
1504677809.84,46439,13.69,73692.8,2.69,2.13,2.09,0,*77
1504677811.1,46440,13.69,73698.3,2.69,1.97,1.93,0,*76
1504677812.35,46441,13.69,73696.5,2.69,2.13,2.09,0,*78
1504677813.55,46442,13.69,73694.0,2.67,2.35,2.35,0,*7E
1504677814.78,46443,13.69,73696.3,2.71,2.47,2.47,0,*78
1504677816.01,46444,13.69,73700.8,2.71,2.59,2.59,0,*7F
1504677817.27,46445,13.69,73700.3,2.73,2.59,2.59,0,*7C
1504677818.51,46446,13.69,73696.3,2.71,2.51,2.51,0,*7D
1504677819.7,46447,13.69,73700.3,2.71,2.61,2.61,0,*7C
1504677820.94,46448,13.69,73696.8,2.73,2.59,2.61,0,*7A
1504677822.18,46449,13.69,73698.3,2.73,2.27,2.25,0,*72
1504677823.44,46450,13.69,73690.5,2.73,2.47,2.47,0,*78
1504677824.7,46451,13.69,73688.0,2.73,2.51,2.59,0,*71
1504677825.96,46452,13.69,73684.5,2.73,2.39,2.39,0,*7A
1504677827.22,46453,13.69,73686.0,2.73,2.13,2.05,0,*7C
1504677828.49,46454,13.69,73692.0,2.73,1.85,1.85,0,*7C
1504677829.74,46455,13.69,73696.3,2.73,2.05,2.05,0,*7D
1504677831.0,46456,13.69,73694.8,2.73,2.13,2.25,0,*7B
1504677832.27,46457,13.69,73690.8,2.73,2.13,2.13,0,*7F
1504677833.53,46458,13.69,73694.8,2.73,2.13,2.13,0,*70
1504677834.71,46459,13.69,73698.5,2.71,2.27,2.27,0,*73
1504677835.97,46460,13.69,73692.0,2.73,2.39,2.39,0,*7B
1504677837.24,46461,13.69,73696.3,2.73,2.39,2.51,0,*74
1504677838.5,46462,13.69,73706.8,2.73,2.39,2.39,0,*79
1504677839.73,46463,13.69,73704.5,2.71,2.39,2.39,0,*7A
1504677840.94,46464,13.69,73718.8,2.73,2.27,2.35,0,*7C
1504677842.17,46465,13.69,73714.3,2.73,2.35,2.39,0,*72
1504677843.41,46466,13.69,73700.0,2.73,2.39,2.35,0,*71
1504677844.67,46467,13.69,73694.5,2.73,2.25,2.25,0,*7C
1504677845.88,46468,13.69,73690.0,2.73,2.27,2.27,0,*73
1504677847.14,46469,13.69,73698.5,2.73,2.13,2.17,0,*76
1504677848.35,46470,13.69,73706.5,2.73,2.27,2.27,0,*7A
1504677849.61,46471,13.69,73702.0,2.73,2.39,2.47,0,*72
1504677850.87,46472,13.69,73714.3,2.73,2.39,2.39,0,*78
1504677852.14,46473,13.69,73704.5,2.73,2.59,2.51,0,*71
1504677853.4,46474,13.69,73700.5,2.73,2.47,2.39,0,*77
1504677854.67,46475,13.69,73698.5,2.73,2.47,2.51,0,*78
1504677855.85,46476,13.69,73702.0,2.75,2.61,2.61,0,*7A
1504677857.04,46477,13.69,73702.0,2.75,2.65,2.65,0,*7B
1504677858.25,46478,13.69,73698.8,2.75,2.69,2.65,0,*78
1504677859.48,46479,13.69,73696.0,2.79,2.77,2.85,0,*74
1504677860.72,46480,13.69,73700.5,2.79,2.81,2.81,0,*7F
1504677861.95,46481,13.69,73700.0,2.79,2.77,2.77,0,*7E
1504677863.18,46482,13.69,73706.0,2.75,2.55,2.51,0,*75
1504677864.42,46483,13.69,73700.3,2.79,2.59,2.59,0,*7C
1504677865.65,46484,13.69,73698.5,2.79,2.47,2.43,0,*7F
1504677866.88,46485,13.69,73694.5,2.79,2.55,2.59,0,*76
1504677868.09,46486,13.69,73694.3,2.79,2.25,2.35,0,*78
1504677869.27,46487,13.69,73692.0,2.75,2.31,2.35,0,*70
1504677870.5,46488,13.69,73688.5,2.79,2.47,2.47,0,*77
1504677871.73,46489,13.69,73692.5,2.79,2.55,2.59,0,*7A
1504677872.97,46490,13.69,73690.0,2.79,2.47,2.59,0,*71
1504677874.21,46491,13.69,73692.5,2.81,2.59,2.65,0,*77
1504677875.46,46492,13.69,73694.5,2.81,2.69,2.69,0,*7B
1504677876.7,46493,13.69,73698.3,2.81,2.59,2.65,0,*75
1504677877.94,46494,13.69,73696.3,2.81,2.65,2.59,0,*72
1504677879.2,46495,13.69,73702.3,2.81,2.55,2.55,0,*7C
1504677880.43,46496,13.69,73702.0,2.83,2.51,2.51,0,*7D
1504677881.69,46497,13.69,73698.3,2.81,2.69,2.69,0,*7E
1504677882.92,46498,13.69,73698.8,2.83,2.73,2.81,0,*7E
1504677884.18,46499,13.69,73696.8,2.81,2.59,2.69,0,*73
1504677885.41,46500,13.69,73694.5,2.81,2.65,2.69,0,*7D
1504677886.65,46501,13.69,73694.3,2.81,2.65,2.59,0,*7F
1504677887.87,46502,13.69,73694.3,2.83,2.73,2.69,0,*7A
1504677889.13,46503,13.69,73692.8,2.81,2.69,2.69,0,*72
1504677890.35,46504,13.69,73686.8,2.83,2.73,2.73,0,*77
1504677891.58,46505,13.69,73680.3,2.83,2.59,2.59,0,*76
1504677892.84,46506,13.69,73678.5,2.85,2.47,2.47,0,*73
1504677894.07,46507,13.69,73682.5,2.83,2.39,2.47,0,*7D
1504677895.3,46508,13.69,73690.5,2.83,2.25,2.25,0,*7B
1504677896.56,46509,13.69,73696.5,2.81,2.09,2.13,0,*73
1504677897.82,46510,13.69,73700.3,2.81,2.09,2.09,0,*70
1504677899.08,46511,13.69,73710.5,2.81,2.09,2.09,0,*71
1504677900.33,46512,13.69,73708.5,2.81,1.93,1.93,0,*72
1504677901.57,46513,13.69,73704.8,2.81,1.85,1.83,0,*75
1504677902.75,46514,13.69,73708.8,2.79,1.83,1.75,0,*7A
1504677903.94,46515,13.69,73718.8,2.75,1.83,1.83,0,*7E
1504677905.17,46516,13.69,73708.3,2.75,2.09,2.09,0,*7D
1504677906.4,46517,13.69,73706.3,2.75,2.05,2.05,0,*7C
1504677907.63,46518,13.69,73708.3,2.79,2.09,2.13,0,*74
1504677908.88,46519,13.69,73702.8,2.75,2.43,2.51,0,*71
1504677910.09,46520,13.69,73708.0,2.75,2.55,2.65,0,*7B
1504677911.28,46521,13.69,73704.5,2.75,2.65,2.61,0,*7D
1504677912.51,46522,13.69,73700.3,2.75,2.51,2.43,0,*79
1504677913.75,46523,13.75,73698.0,2.79,2.43,2.47,0,*73
1504677914.98,46524,13.69,73702.5,2.79,2.59,2.47,0,*7F
1504677916.21,46525,13.69,73712.3,2.79,2.59,2.59,0,*71
1504677917.42,46526,13.69,73714.5,2.79,1.71,1.75,0,*76
1504677918.66,46527,13.69,73714.0,2.79,1.37,1.29,0,*7C
1504677919.89,46528,13.69,73712.3,2.75,0.83,0.75,0,*79
1504677921.13,46529,13.69,73714.8,2.73,0.67,0.59,0,*7A
1504677922.37,46530,13.69,73718.5,2.71,1.33,1.33,0,*7D
1504677923.59,46531,13.69,73714.8,2.71,1.67,1.67,0,*7C
1504677924.83,46532,13.69,73716.3,2.71,1.33,1.29,0,*74
1504677926.09,46533,13.69,73712.8,2.67,1.13,1.09,0,*72
1504677927.35,46534,13.69,73718.3,2.67,1.09,1.09,0,*7E
1504677928.52,46535,13.69,73714.0,2.65,1.05,0.97,0,*47
1504677929.76,46536,13.69,73710.5,2.63,0.91,0.95,0,*7C
1504677931.0,46537,13.69,73710.0,2.63,0.91,0.95,0,*7D
1504677932.22,46538,13.69,73710.0,2.65,0.87,0.95,0,*73
1504677933.45,46539,13.69,73710.3,2.63,0.95,0.95,0,*77
1504677934.65,46540,13.69,73710.0,2.63,1.01,1.05,0,*7D
1504677935.88,46541,13.69,73708.3,2.63,1.41,1.33,0,*7D
1504677937.13,46542,13.69,73702.5,2.59,1.17,1.29,0,*7F
1504677938.37,46543,13.69,73704.8,2.61,1.21,1.21,0,*78
1504677939.62,46544,13.69,73702.0,2.59,1.25,1.25,0,*74
1504677940.87,46545,13.69,73704.3,2.59,1.63,1.51,0,*74
1504677942.12,46546,13.69,73706.3,2.59,1.63,1.59,0,*7F
1504677943.37,46547,13.69,73706.5,2.59,1.71,1.71,0,*77
1504677944.57,46548,13.69,73704.0,2.61,1.79,1.85,0,*70
1504677945.78,46549,13.69,73700.5,2.59,1.75,1.83,0,*70
1504677947.02,46550,13.69,73700.5,2.59,1.63,1.71,0,*72
1504677948.28,46551,13.69,73704.5,2.59,1.97,2.01,0,*7C
1504677949.53,46552,13.69,73700.3,2.59,2.01,2.01,0,*73
1504677950.78,46553,13.69,73700.8,2.59,2.25,2.25,0,*72
1504677952.03,46554,13.69,73706.0,2.59,2.25,2.25,0,*75
1504677953.2,46555,13.69,73700.5,2.61,2.35,2.27,0,*7C
1504677954.38,46556,13.69,73694.0,2.61,2.35,2.35,0,*7C
1504677955.55,46557,13.69,73694.3,2.61,2.27,2.27,0,*7D
1504677956.75,46558,13.69,73696.5,2.61,2.35,2.39,0,*7E
1504677957.98,46559,13.69,73692.5,2.61,2.39,2.39,0,*73
1504677959.21,46560,13.69,73684.3,2.63,2.35,2.51,0,*79
1504677960.47,46561,13.69,73686.8,2.63,2.51,2.51,0,*7A
1504677961.65,46562,13.69,73692.3,2.65,2.61,2.61,0,*7F
1504677962.84,46563,13.69,73694.0,2.65,2.61,2.61,0,*7E
1504677964.09,46564,13.69,73684.8,2.67,2.55,2.59,0,*77
1504677965.34,46565,13.69,73686.5,2.67,2.47,2.55,0,*79
1504677966.59,46566,13.69,73688.8,2.69,2.55,2.47,0,*74
1504677967.84,46567,13.69,73690.3,2.67,2.01,1.97,0,*74
1504677969.1,46568,13.69,73692.8,2.67,2.13,2.13,0,*77
1504677970.35,46569,13.69,73694.5,2.67,2.25,2.25,0,*76
1504677971.57,46570,13.69,73692.8,2.67,2.35,2.25,0,*7F
1504677972.83,46571,13.69,73696.0,2.67,2.47,2.47,0,*7F
1504677974.09,46572,13.69,73698.8,2.69,2.59,2.59,0,*72
1504677975.34,46573,13.69,73692.3,2.69,2.69,2.59,0,*70
1504677976.59,46574,13.69,73694.3,2.67,2.69,2.73,0,*71
1504677977.84,46575,13.69,73688.5,2.69,2.73,2.73,0,*75
1504677979.07,46576,13.69,73686.0,2.69,2.69,2.65,0,*7A
1504677980.33,46577,13.69,73684.5,2.69,2.73,2.73,0,*77
1504677981.51,46578,13.69,73688.8,2.71,2.61,2.61,0,*71
1504677982.78,46579,13.69,73690.5,2.73,2.13,2.17,0,*76
1504677984.01,46580,13.69,73684.3,2.71,2.39,2.39,0,*76
1504677985.24,46581,13.69,73684.3,2.71,2.47,2.51,0,*70
1504677986.48,46582,13.69,73682.3,2.71,2.51,2.51,0,*74
1504677987.67,46583,13.69,73686.3,2.71,2.61,2.61,0,*75
1504677988.88,46584,13.69,73684.5,2.73,2.61,2.61,0,*70
1504677990.12,46585,13.75,73688.8,2.73,2.61,2.73,0,*72
1504677991.37,46586,13.69,73684.3,2.73,2.73,2.77,0,*76
1504677992.63,46587,13.69,73682.5,2.73,2.77,2.73,0,*77
1504677993.86,46588,13.69,73684.0,2.73,2.61,2.69,0,*74
1504677995.1,46589,13.75,73688.3,2.73,2.61,2.69,0,*75
1504677996.33,46590,13.69,73686.8,2.75,2.77,2.77,0,*73
1504677997.56,46591,13.69,73692.8,2.75,2.77,2.81,0,*7B
1504677998.8,46592,13.69,73690.0,2.79,2.81,2.77,0,*74
1504678000.04,46593,13.69,73690.0,2.79,2.81,2.81,0,*7C
1504678001.27,46594,13.69,73688.8,2.75,2.81,2.81,0,*77
1504678002.46,46595,13.69,73690.3,2.79,2.65,2.65,0,*7A
1504678003.7,46596,13.69,73686.8,2.79,2.59,2.59,0,*79
1504678004.93,46597,13.69,73688.5,2.75,2.55,2.55,0,*74
1504678006.11,46598,13.69,73692.3,2.79,2.65,2.65,0,*77
1504678007.35,46599,13.69,73692.5,2.79,2.09,2.09,0,*76
1504678008.58,46600,13.69,73692.8,2.79,1.97,1.97,0,*75
1504678009.76,46601,13.69,73690.5,2.75,1.79,1.79,0,*78
1504678010.95,46602,13.69,73684.8,2.75,1.83,1.79,0,*7E
1504678012.21,46603,13.69,73682.8,2.73,1.97,2.01,0,*70
1504678013.45,46604,13.69,73680.0,2.75,2.43,2.51,0,*7E
1504678014.66,46605,13.69,73682.5,2.75,2.55,2.61,0,*7B
1504678015.89,46606,13.69,73682.0,2.79,2.69,2.77,0,*7C
1504678017.08,46607,13.69,73684.5,2.79,2.65,2.65,0,*72
1504678018.28,46608,13.69,73686.3,2.75,2.61,2.55,0,*76
1504678019.49,46609,13.75,73688.3,2.79,2.69,2.65,0,*70
1504678020.68,46610,13.69,73690.5,2.75,2.61,2.61,0,*78
1504678021.92,46611,13.69,73686.8,2.75,2.43,2.51,0,*7A
1504678023.15,46612,13.69,73688.5,2.79,2.69,2.69,0,*76
1504678024.34,46613,13.69,73692.0,2.79,2.65,2.65,0,*77
1504678025.54,46614,13.69,73692.0,2.79,2.69,2.65,0,*7C
1504678026.77,46615,13.69,73690.5,2.79,2.77,2.69,0,*7E
1504678028.01,46616,13.69,73694.5,2.81,2.59,2.65,0,*7A
1504678029.26,46617,13.69,73696.8,2.81,2.69,2.69,0,*74
1504678030.52,46618,13.69,73696.8,2.81,2.85,2.85,0,*7B
1504678031.78,46619,13.69,73696.0,2.81,2.81,2.81,0,*7A
1504678033.04,46620,13.69,73700.0,2.81,2.69,2.77,0,*7F
1504678034.28,46621,13.69,73704.0,2.81,2.59,2.65,0,*7E
1504678035.51,46622,13.69,73700.0,2.81,2.85,2.91,0,*77
1504678036.74,46623,13.75,73702.0,2.81,2.85,2.91,0,*76
1504678037.92,46624,13.69,73700.0,2.83,2.95,2.99,0,*7A
1504678039.13,46625,13.69,73702.5,2.81,2.91,2.91,0,*75
1504678040.35,46626,13.69,73706.5,2.85,2.89,2.95,0,*7F
1504678041.6,46627,13.69,73704.5,2.85,2.85,2.85,0,*73
1504678042.86,46628,13.69,73706.5,2.85,2.73,2.81,0,*71
1504678044.12,46629,13.69,73702.8,2.85,2.47,2.39,0,*74
1504678045.29,46630,13.69,73706.8,2.83,2.35,2.27,0,*70
1504678046.52,46631,13.69,73704.8,2.83,2.69,2.73,0,*79
1504678047.75,46632,13.69,73704.5,2.83,2.85,2.85,0,*71
1504678049.0,46633,13.69,73702.8,2.85,2.81,2.73,0,*7B
1504678050.25,46634,13.69,73704.8,2.85,2.69,2.69,0,*71
1504678051.51,46635,13.69,73708.5,2.85,2.73,2.73,0,*70
1504678052.73,46636,13.69,73704.0,2.85,2.61,2.69,0,*7B
1504678053.99,46637,13.69,73704.5,2.85,2.47,2.47,0,*72
1504678055.24,46638,13.69,73702.0,2.85,2.69,2.69,0,*7D
1504678056.47,46639,13.69,73698.3,2.87,2.85,2.89,0,*72
1504678057.7,46640,13.69,73696.3,2.87,2.89,2.89,0,*70
1504678058.9,46641,13.69,73700.3,2.87,2.89,2.91,0,*78
1504678060.08,46642,13.69,73700.5,2.87,2.91,2.91,0,*72
1504678061.26,46643,13.69,73698.0,2.87,2.99,2.95,0,*7F
1504678062.48,46644,13.69,73698.3,2.87,2.85,2.85,0,*74
1504678063.66,46645,13.69,73700.5,2.87,2.91,2.91,0,*75
1504678064.9,46646,13.69,73700.3,2.87,3.03,3.03,0,*76
1504678066.13,46647,13.69,73698.8,2.89,3.03,2.99,0,*7B
1504678067.36,46648,13.69,73698.5,2.89,2.99,3.03,0,*74
1504678068.54,46649,13.69,73700.3,2.91,2.95,2.95,0,*7E
1504678069.78,46650,13.69,73700.5,2.91,3.07,3.07,0,*76
1504678071.02,46651,13.75,73706.8,2.93,3.11,3.19,0,*7D
1504678072.28,46652,13.69,73700.8,2.93,3.11,3.11,0,*76
1504678073.53,46653,13.75,73700.0,2.93,3.07,3.11,0,*70
1504678074.79,46654,13.69,73700.8,2.93,3.07,3.11,0,*77
1504678076.04,46655,13.69,73702.3,2.93,3.11,3.23,0,*70
1504678077.24,46656,13.75,73702.0,2.93,2.95,2.99,0,*7E
1504678078.49,46657,13.69,73702.3,2.93,3.07,3.07,0,*73
1504678079.74,46658,13.69,73702.5,2.93,3.11,3.19,0,*74
1504678080.92,46659,13.69,73704.3,2.95,2.91,2.91,0,*7B
1504678082.14,46660,13.69,73706.0,2.95,2.81,2.85,0,*75
1504678083.36,46661,13.69,73702.5,2.95,2.85,2.85,0,*70
1504678084.56,46662,13.75,73704.8,2.95,2.91,2.85,0,*76
1504678085.76,46663,13.75,73706.8,2.95,2.99,3.19,0,*7B
1504678086.99,46664,13.69,73706.8,2.95,3.07,3.11,0,*72
1504678088.19,46665,13.69,73704.8,2.95,3.07,2.99,0,*72
1504678089.42,46666,13.69,73704.0,2.97,2.99,3.03,0,*77
1504678090.63,46667,13.69,73708.3,2.97,2.99,2.99,0,*74
1504678091.88,46668,13.69,73704.5,2.97,2.77,2.77,0,*7B
1504678093.14,46669,13.69,73702.0,2.97,2.89,2.89,0,*7A
1504678094.34,46670,13.69,73692.0,2.97,2.95,2.95,0,*72
1504678095.57,46671,13.69,73692.8,2.97,2.85,2.95,0,*72
1504678096.78,46672,13.75,73702.0,2.97,2.61,2.61,0,*70
1504678098.01,46673,13.69,73700.5,2.97,2.65,2.73,0,*76
1504678099.27,46674,13.69,73698.3,2.97,2.89,2.89,0,*76
1504678100.53,46675,13.69,73708.5,2.97,2.89,2.89,0,*77
1504678101.73,46676,13.69,73712.3,2.97,2.95,2.99,0,*78
1504678102.91,46677,13.69,73710.8,2.95,2.91,2.91,0,*77
1504678104.09,46678,13.69,73710.8,2.95,2.91,2.91,0,*78
1504678105.34,46679,13.69,73706.8,2.97,2.85,2.89,0,*77
1504678106.57,46680,13.75,73706.0,2.95,2.69,2.81,0,*79
1504678107.79,46681,13.69,73696.3,2.95,2.85,2.85,0,*7E
1504678108.99,46682,13.69,73698.0,2.97,2.99,2.99,0,*7F
1504678110.25,46683,13.69,73704.0,2.97,3.03,3.03,0,*7E
1504678111.51,46684,13.69,73710.0,2.97,3.03,3.11,0,*7A
1504678112.71,46685,13.69,73706.8,2.97,2.95,2.95,0,*78
1504678113.92,46686,13.69,73710.5,2.97,2.99,2.99,0,*7B
1504678115.12,46687,13.69,73720.0,3.01,2.99,3.03,0,*76
1504678116.38,46688,13.69,73712.0,2.97,2.51,2.55,0,*71
1504678117.64,46689,13.69,73706.5,2.97,2.51,2.43,0,*77
1504678118.89,46690,13.69,73704.3,2.97,2.73,2.77,0,*78
1504678120.11,46691,13.69,73700.3,3.01,2.89,2.85,0,*7F
1504678121.36,46692,13.69,73698.0,2.97,2.85,2.85,0,*7E
1504678122.59,46693,13.75,73700.0,3.01,2.89,2.85,0,*7D
1504678123.82,46694,13.69,73698.0,2.97,2.51,2.61,0,*7B
1504678125.06,46695,13.69,73696.5,2.97,2.55,2.61,0,*7E
1504678126.29,46696,13.69,73702.0,2.97,2.65,2.73,0,*7D
1504678127.48,46697,13.69,73700.5,3.01,2.61,2.61,0,*75
1504678128.73,46698,13.69,73706.5,2.97,2.73,2.77,0,*70
1504678129.98,46699,13.69,73708.3,2.97,2.89,2.85,0,*79
1504678131.19,46700,13.69,73704.5,3.01,2.51,2.61,0,*79
1504678132.45,46701,13.69,73706.3,2.97,2.51,2.39,0,*7B
1504678133.71,46702,13.69,73706.0,2.97,2.51,2.51,0,*76
1504678134.94,46703,13.69,73704.5,2.97,2.61,2.55,0,*70
1504678136.16,46704,13.69,73706.3,2.95,2.85,2.85,0,*72